User: anonymous   Login
Location: Esp�n
(42.4593°N, 0.2047°W)
Time: 11:44:59
(UTC+00:00)
Language:

Spot 4 Rocket - Orbit

View from above orbital plane
View from above orbital plane
View from above satellite
View from above satellite

Ground track
Ground track

The orbit data is extracted from the following two-line orbital elements,

1 25261U 98017B   20226.88077277 +.00000057 +00000-0 +36653-4 0  9998
2 25261 098.6924 184.6991 0002359 296.3744 063.7198 14.33835405170073
Epoch (UTC): 13 August 2020 21:08:18
Eccentricity: 0.0002359
inclination: 98.6924°
perigee height: 777 km
apogee height: 780 km
right ascension of ascending node: 184.6991°
argument of perigee: 296.3744°
revolutions per day: 14.33835405
mean anomaly at epoch: 63.7198°
orbit number at epoch: 17007

The dashed part of the orbit path shows where the satellite is in the earth's shadow,  

DLR